User: anonymous   Login
Location: Bangkok
(13.7500°N, 100.5170°E)
Time: 19:04:35
(UTC+07:00)
Language:

Cosmos 1898 Rocket - Orbit

View from above orbital plane
View from above orbital plane
View from above satellite
View from above satellite

Ground track
Ground track

The orbit data is extracted from the following two-line orbital elements,

1 18586U 87098B   14327.20199713  .00000189  00000-0  73214-4 0  1787
2 18586 074.0072 220.4233 0020227 140.7590 332.1917 14.36502277412803
Epoch (UTC): 23 November 2014 04:50:52
Eccentricity: 0.0020227
inclination: 74.0072°
perigee height: 755 km
apogee height: 784 km
right ascension of ascending node: 220.4233°
argument of perigee: 140.7590°
revolutions per day: 14.36502277
mean anomaly at epoch: 332.1917°
orbit number at epoch: 41280

The dashed part of the orbit path shows where the satellite is in the earth's shadow,  

DLR